Theta_e
321 321 322 322 322 323 324 325 325 326 325 325 326 325 325 324 323 317 309 314 317 327 322 313 312 311 313 310 308 305 301 297 297 298 300 304 303 304 305 304 305 305 304 302 305
321 321 321 321 321 322 323 324 325 326 326 325 325 324 324 324 315 310 320 327 331 328 311 309 307 308 308 307 308 305 300 297 300 302 302 303 303 304 303 303 303 303 304 304 305
321 321 321 321 321 321 322 324 324 325 326 326 325 325 324 321 309 307 326 328 330 321 312 311 310 308 304 306 305 302 299 299 300 302 303 303 302 304 302 301 303 302 302 302 303
321 320 320 320 320 321 321 323 324 325 326 326 325 324 322 314 300 310 326 328 329 314 312 309 308 304 302 300 304 300 301 301 302 303 302 302 303 302 302 301 300 301 300 300 300
321 320 320 320 320 321 321 322 324 325 325 325 325 323 313 308 309 318 325 326 316 312 309 307 304 304 300 301 302 301 301 302 303 302 302 301 301 301 298 300 300 299 299 298 298
320 320 320 320 321 321 321 322 323 324 325 325 324 321 309 304 317 320 315 311 311 310 308 308 305 306 302 301 300 301 300 301 302 301 301 300 299 300 297 300 298 298 297 297 297
320 320 320 320 321 321 321 321 322 324 324 324 322 316 308 309 319 318 312 310 311 309 307 308 308 305 304 300 301 300 298 300 301 299 299 301 296 297 297 299 297 296 296 295 295
320 319 319 320 320 320 320 321 322 323 323 322 321 312 307 308 319 314 313 310 310 310 309 309 309 305 303 302 299 298 298 296 298 298 298 299 296 295 297 298 296 295 295 294 294
319 319 319 319 320 320 320 321 320 321 321 321 315 309 306 312 310 314 312 308 307 307 307 307 307 303 302 299 297 295 295 293 296 298 298 298 297 296 296 297 295 294 294 294 294
319 319 319 320 320 319 319 321 322 318 317 317 313 306 307 303 305 307 308 309 305 305 304 304 302 299 297 297 292 295 292 293 295 296 297 296 297 294 294 295 294 293 293 293 293
320 319 320 320 320 320 320 319 312 309 311 307 307 306 304 303 306 304 307 305 305 303 298 299 297 294 297 299 298 296 294 294 295 295 295 297 297 297 294 293 293 293 293 292 292
320 320 320 320 320 320 320 313 311 310 304 310 309 306 305 304 299 301 306 301 300 296 297 295 293 299 297 297 295 294 293 293 294 294 294 295 295 298 293 293 293 292 292 292 291
320 319 320 320 319 319 315 314 311 311 306 306 308 307 306 303 301 300 303 300 297 294 294 295 296 297 295 292 292 293 292 293 293 293 294 292 293 294 289 290 290 291 292 292 292
321 319 319 319 315 316 312 318 318 315 298 299 302 307 302 304 299 303 304 301 296 294 294 294 297 293 292 292 293 291 294 293 291 291 289 291 289 292 290 289 289 289 291 291 291
320 319 319 319 315 311 314 320 319 311 285 299 299 303 302 303 300 297 301 299 296 293 295 294 292 293 292 293 294 293 294 292 292 291 290 289 288 293 289 287 288 289 290 292 291
319 319 318 317 316 316 314 314 311 294 285 295 296 296 297 297 294 296 297 300 299 294 294 296 296 296 296 293 295 293 292 290 290 290 284 290 289 291 289 291 290 290 290 291 290
318 318 316 319 311 311 313 309 292 285 299 292 293 295 297 293 292 293 292 293 293 290 291 294 293 294 294 292 292 293 291 286 284 283 283 286 286 292 295 292 292 290 290 291 290
318 317 316 319 317 312 312 301 284 293 296 293 291 293 294 292 292 292 292 291 295 294 291 290 288 291 294 296 292 290 293 288 281 280 284 284 283 290 291 292 291 293 292 291 289
317 317 316 317 317 313 305 290 289 295 299 293 290 290 291 290 293 291 292 294 295 294 292 289 290 292 292 292 295 289 287 293 283 279 284 287 288 290 288 287 288 289 290 289 289
314 312 311 319 317 310 299 292 294 300 299 299 291 293 290 289 290 290 290 295 293 296 299 294 289 289 289 292 291 291 294 286 287 281 280 283 284 289 286 288 287 287 288 289 290
311 303 313 319 314 303 292 293 297 302 301 295 295 295 293 290 291 289 292 294 296 293 297 293 291 287 288 288 289 287 287 288 290 288 284 282 285 292 292 292 288 289 290 291 290
308 295 314 318 301 301 295 298 300 300 303 299 298 297 293 290 288 290 291 295 296 295 291 296 291 285 286 289 290 292 290 290 287 281 284 283 287 290 292 292 292 291 291 292 291
301 301 308 310 292 294 298 298 300 298 299 299 297 297 299 292 287 291 293 294 294 295 294 294 290 285 285 287 288 286 289 291 292 288 285 284 287 288 289 289 291 291 290 290 291
301 293 299 300 303 295 296 295 296 301 300 300 298 298 294 293 293 292 291 292 294 295 297 297 291 289 287 290 291 286 288 288 289 287 287 286 291 286 289 289 289 290 290 291 290
299 296 299 291 294 296 296 296 294 293 298 300 295 297 295 291 292 291 295 290 292 294 294 294 287 291 293 290 291 291 288 288 287 289 287 290 289 290 291 291 291 292 291 290 290
293 294 294 296 296 295 295 292 292 295 293 291 294 296 296 293 294 289 293 291 292 290 290 290 287 290 287 289 286 285 289 289 288 290 290 290 289 295 293 293 292 291 290 289 289
293 294 294 293 291 292 293 293 292 295 293 295 294 294 291 295 294 294 293 293 291 289 288 287 287 284 283 287 282 279 285 288 288 291 291 286 291 289 288 289 291 291 290 290 290
Wind_Speed
4 5 5 5 6 6 7 7 7 7 9 11 12 11 9 9 10 3 3 2 1 4 1 3 3 3 2 4 2 1 2 4 5 6 5 3 4 3 1 2 2 5 5 5 8
2 3 3 4 4 4 5 6 7 8 9 11 12 11 10 10 3 4 3 3 0 4 2 3 3 2 3 2 2 2 3 3 2 3 5 4 2 2 4 0 4 6 9 7 8
1 1 2 2 3 4 4 5 6 7 9 11 12 11 10 6 4 1 1 1 4 1 2 2 4 1 1 0 1 1 2 2 3 3 2 2 2 2 2 2 5 3 4 8 9
2 1 1 2 3 3 3 5 6 7 9 10 11 12 12 2 4 2 0 2 4 3 3 4 2 2 1 2 1 3 1 2 2 4 4 3 1 2 2 4 5 8 6 6 8
4 3 2 3 4 4 4 5 6 7 8 10 10 12 3 2 4 2 3 4 4 3 3 3 2 3 3 2 2 3 1 3 2 4 4 2 6 1 3 5 6 7 6 7 7
6 5 4 3 4 5 5 5 7 7 9 11 9 10 2 6 3 5 5 3 3 3 4 5 3 3 3 2 4 1 3 5 6 4 4 6 2 5 5 7 6 5 6 6 7
8 6 6 5 5 4 5 6 7 8 10 9 6 2 2 10 1 5 4 1 3 2 4 2 5 4 6 4 1 1 5 6 7 2 4 7 5 6 5 6 5 4 4 5 7
9 8 7 6 6 5 5 6 7 10 8 2 2 1 7 2 2 4 5 4 4 3 3 4 3 5 0 5 2 2 3 5 3 3 3 7 4 7 2 6 2 2 2 3 5
10 9 8 7 7 6 6 5 8 6 2 1 2 2 7 2 3 4 3 6 6 4 5 4 2 3 4 5 4 3 6 6 3 2 3 7 2 7 1 4 3 1 2 2 3
11 10 9 8 6 5 6 6 3 1 1 1 1 3 5 4 3 5 2 8 4 6 5 2 3 4 4 9 10 7 7 6 8 4 4 6 8 8 3 4 4 3 3 3 4
12 11 10 8 6 4 4 2 4 4 5 9 6 2 4 3 2 2 3 6 5 4 9 3 9 14 20 19 7 2 5 8 3 2 5 12 13 11 8 6 7 6 5 5 5
14 12 11 9 7 6 3 4 2 3 7 13 9 7 3 5 4 5 6 10 8 10 9 5 16 17 0 9 10 8 10 13 5 3 5 10 14 9 9 6 6 8 8 7 7
15 14 13 11 9 5 7 6 2 1 5 5 8 10 7 11 10 15 16 7 6 11 17 16 3 8 10 7 11 13 15 12 10 3 4 6 14 14 4 4 6 6 7 7 8
15 15 14 14 7 6 7 7 6 4 6 7 8 6 7 8 8 3 12 6 6 14 8 11 5 8 11 13 13 17 13 10 8 5 10 3 8 5 8 9 10 11 11 11 9
14 17 19 23 9 9 4 9 9 3 10 6 4 2 2 9 8 2 0 3 12 10 8 6 10 12 12 9 12 5 5 9 7 11 6 9 8 4 6 13 14 16 15 14 13
15 17 20 15 2 5 9 12 5 6 17 5 4 5 7 2 2 4 8 3 3 6 2 6 1 6 6 3 6 14 7 5 3 3 10 15 14 8 8 10 18 18 18 16 13
15 15 15 8 6 7 12 5 6 11 3 9 6 7 8 7 4 5 14 14 12 11 16 8 10 4 4 6 2 7 11 5 6 7 8 3 11 11 8 8 14 24 22 19 15
14 12 12 8 7 13 6 8 8 15 26 7 6 4 11 10 5 7 10 13 17 7 5 11 9 16 14 18 12 19 19 7 8 7 3 2 9 6 1 6 3 17 19 19 17
12 5 6 8 14 12 9 13 12 11 13 11 7 7 8 6 6 9 11 10 13 17 14 10 9 4 6 5 14 10 12 4 5 1 2 6 5 5 6 6 8 15 19 19 18
5 5 13 13 13 11 12 18 13 11 7 16 21 17 16 13 12 15 14 8 9 18 10 6 7 2 4 4 1 6 13 7 6 6 7 5 7 8 11 15 13 17 21 21 19
5 5 4 15 11 6 12 11 15 13 16 12 19 15 12 13 17 12 13 5 14 13 18 5 5 4 5 14 18 7 9 5 4 4 4 4 7 7 13 19 21 20 22 23 21
5 9 3 12 13 4 13 14 11 15 16 12 4 14 14 13 14 18 19 14 17 16 18 11 3 6 14 0 3 12 9 14 9 7 5 3 6 4 4 10 15 16 19 20 21
5 8 2 5 12 14 6 19 12 12 17 17 15 11 13 11 6 15 13 6 12 19 20 16 6 3 3 6 4 10 13 15 11 2 12 8 5 2 3 7 11 14 17 19 20
4 6 4 3 7 3 11 16 20 9 9 15 10 12 12 17 13 7 13 6 11 16 3 18 8 17 19 7 13 13 17 15 14 10 9 19 8 8 10 11 12 13 16 20 20
5 7 5 6 14 17 20 3 17 14 10 11 6 19 17 13 19 22 17 5 5 7 6 14 15 22 28 12 12 13 21 22 24 29 17 19 19 15 17 16 17 18 16 17 19
3 4 2 10 5 17 25 14 12 19 11 6 14 17 19 19 19 9 18 12 12 7 9 4 12 19 24 13 10 6 15 27 29 27 24 13 14 10 12 6 11 15 16 18 18
1 2 1 5 6 12 16 17 17 10 4 1 12 12 7 15 6 5 7 5 2 7 13 7 10 6 19 11 1 7 26 18 19 22 23 21 16 6 7 12 14 15 16 17 15
Wind_Direction
72 57 39 38 33 20 15 14 12 6 356 344 336 328 324 324 306 225 260 23 250 173 182 144 100 74 74 84 50 255 213 184 179 178 150 150 191 137 352 253 47 36 51 3 343
71 55 40 27 21 21 7 5 1 355 349 344 333 328 325 330 276 252 24 314 179 166 170 176 130 85 92 85 71 254 250 198 143 157 162 159 251 65 216 312 145 117 83 42 36
150 76 26 8 2 1 360 355 348 347 344 338 329 323 321 316 280 127 6 203 145 137 101 98 101 62 100 339 67 131 269 158 177 180 177 198 255 143 235 183 51 16 70 38 39
226 235 293 317 329 333 345 338 335 335 338 335 327 323 320 247 292 136 120 171 152 129 119 120 106 127 166 210 92 234 201 221 95 159 163 202 96 214 284 60 52 73 70 52 42
243 234 257 291 306 314 321 328 327 329 331 334 330 328 308 271 263 117 106 124 142 150 170 152 174 155 210 165 174 235 216 208 228 198 229 169 233 264 104 111 99 93 72 55 44
245 255 256 263 285 303 312 319 324 325 325 329 330 322 266 257 97 142 139 137 166 170 159 173 184 169 116 173 231 130 258 266 259 231 201 216 203 189 135 142 109 88 65 57 46
231 242 258 270 276 290 304 309 316 319 317 320 336 334 231 256 117 139 147 157 155 186 170 170 145 187 148 157 121 122 283 284 243 217 201 171 177 186 124 163 117 83 63 46 30
223 233 240 255 269 277 286 302 317 318 313 329 49 257 254 52 132 152 150 97 88 62 83 118 130 98 82 127 112 240 254 270 130 177 139 204 176 151 177 214 166 105 89 57 36
220 224 232 238 259 276 281 293 310 308 340 5 203 253 260 134 185 168 182 147 111 76 67 89 67 85 153 191 231 200 257 228 268 223 161 219 148 149 83 194 179 153 100 92 78
227 221 225 230 239 263 281 278 282 265 177 224 62 249 188 213 152 134 84 139 122 127 115 108 107 189 167 194 236 208 214 218 242 169 214 223 246 164 156 196 191 170 144 113 87
224 221 217 218 223 215 270 249 212 202 218 211 187 227 138 102 155 155 154 123 126 160 191 146 209 216 213 214 234 208 217 234 204 165 234 241 251 197 179 183 190 176 157 127 89
219 215 206 201 191 195 222 248 298 52 289 234 236 273 194 179 138 186 175 178 180 196 142 169 228 231 302 204 204 226 241 244 272 206 237 255 252 242 195 205 199 174 160 146 133
221 209 195 176 168 182 214 224 135 223 258 247 200 209 195 175 207 181 179 158 194 184 197 214 176 203 181 170 202 230 231 233 255 153 231 275 259 226 191 182 168 174 155 153 145
221 208 184 154 164 173 217 205 210 336 268 219 212 229 161 159 228 161 183 157 190 215 191 242 183 154 188 211 201 241 217 233 227 236 260 224 282 209 186 186 193 178 180 168 164
224 217 183 168 147 182 194 152 156 233 272 96 132 10 139 192 116 171 199 175 196 169 182 199 176 193 206 204 188 255 148 209 219 235 265 201 258 183 173 209 197 188 185 179 174
217 220 192 188 230 178 132 132 158 184 239 175 126 150 156 181 90 110 171 57 86 147 244 264 58 200 204 98 188 134 102 83 108 198 249 225 220 194 198 211 179 186 187 182 177
230 213 189 164 195 143 135 133 151 195 125 180 162 180 183 171 178 168 180 189 186 189 220 208 214 177 169 136 108 178 159 196 217 205 247 149 215 257 217 179 188 182 183 180 177
221 204 212 200 147 145 169 174 199 230 218 103 116 122 192 157 191 174 172 201 220 210 144 199 230 186 188 214 188 195 187 191 216 203 176 127 228 236 5 131 124 182 179 172 177
191 203 223 200 157 166 186 205 208 210 197 169 135 173 200 202 197 181 214 222 206 197 204 194 242 190 194 140 170 182 214 181 106 314 248 205 239 224 165 170 155 170 176 181 185
201 198 230 168 167 188 200 212 233 220 143 197 218 192 188 186 184 192 187 197 205 197 217 200 250 230 143 134 222 209 150 174 222 212 227 212 249 228 203 197 183 184 187 185 185
205 209 182 159 149 212 217 222 223 219 205 191 220 225 210 179 202 200 208 181 204 199 198 137 239 139 148 206 189 162 188 210 213 214 224 249 228 211 195 192 186 193 194 186 185
185 219 119 142 202 201 219 207 203 207 215 232 220 226 204 186 198 209 215 223 189 154 188 190 170 187 205 63 284 242 217 190 203 189 242 313 255 147 169 178 187 188 193 190 187
205 222 69 198 216 241 236 221 220 191 200 217 222 216 221 195 222 222 218 189 176 172 176 173 199 180 230 219 188 220 207 220 239 62 204 194 226 155 162 206 194 181 188 188 189
166 212 182 222 228 189 235 219 215 198 203 209 223 198 200 220 221 220 223 194 193 207 157 167 173 214 225 225 155 208 208 205 203 228 205 231 236 189 196 206 187 187 188 191 191
191 209 190 198 217 221 233 305 222 204 213 194 196 216 207 225 224 227 226 174 192 196 192 184 220 218 239 259 204 207 198 193 209 221 211 243 229 196 193 196 197 194 185 183 192
217 188 175 235 182 217 225 228 256 228 165 186 225 219 220 226 220 213 225 207 212 165 185 189 231 227 248 219 225 240 218 204 210 219 234 238 242 199 191 160 183 190 182 191 197
55 244 184 185 181 221 216 208 217 194 252 244 213 230 210 232 136 120 76 56 87 162 193 173 210 180 238 230 156 268 225 216 215 220 220 220 228 144 171 194 200 192 189 197 197